Weather History for Provincetown, MA

Change the Weather History Date:

Wednesday, November 21, 2012

  Actual Average Record
Temperature  
Mean Temperature 50 °F -  
Max Temperature 53 °F 47 °F 60 °F (1953)
Min Temperature 46 °F 37 °F 26 °F (1997)
Degree Days  
Heating Degree Days 16    
Moisture  
Dew Point 39 °F    
Average Humidity 68    
Maximum Humidity 76    
Minimum Humidity 58    
Precipitation  
Precipitation 0.00 in - - ()
Sea Level Pressure  
Sea Level Pressure 30.18 in    
Wind  
Wind Speed 11 mph (NE)    
Max Wind Speed 14 mph    
Max Gust Speed 16 mph    
Visibility 10 miles    
Events      
Averages and records for this station are not official NWS values.
T = Trace of Precipitation, MM = Missing Value Source: NWS Daily Summary

Daily Weather History Graph

Daily Weather History Graph

Search for Another Location

Airport:

Trip Planner

Search our weather history database for the weather conditions in past years. The results will help you decide how hot, cold, wet, or windy it might be!

Date:

Astronomy

Nov. 21, 2012 Rise Set
Actual Time 6:38 AM EST 4:14 PM EST
Civil Twilight 6:08 AM EST 4:45 PM EST
Nautical Twilight 5:33 AM EST 5:19 PM EST
Astronomical Twilight 5:00 AM EST 5:52 PM EST
Moon 12:35 PM EST (11/21) No Moon Set
Length of Visible Light 10h 36m
Length of Day
9h 35m
First Quarter, 61% of the Moon is Illuminated
Nov 21
First Quarter
Nov 28
Full
Dec 6
Last Quarter
Dec 13
New
Dec 20
First Quarter

Hourly Weather History & Observations

Time (EST) Temp. Windchill Dew Point Humidity Pressure Visibility Wind Dir Wind Speed Gust Speed Precip Events Conditions
12:15 AM 46.4 °F 41.1 °F 37.4 °F 71% 30.15 in 10.0 mi ENE 11.5 mph - N/A   Clear
12:35 AM 46.4 °F 41.5 °F 37.4 °F 71% 30.15 in 10.0 mi ENE 10.4 mph - N/A   Clear
12:55 AM 46.4 °F 41.1 °F 37.4 °F 71% 30.15 in 10.0 mi NE 11.5 mph - N/A   Clear
1:15 AM 46.4 °F 41.1 °F 35.6 °F 66% 30.15 in 10.0 mi ENE 11.5 mph - N/A   Clear
1:35 AM 46.4 °F 41.5 °F 37.4 °F 71% 30.15 in 10.0 mi ENE 10.4 mph - N/A   Clear
1:55 AM 46.4 °F 41.5 °F 37.4 °F 71% 30.15 in 10.0 mi NE 10.4 mph - N/A   Clear
2:15 AM 46.4 °F 41.1 °F 35.6 °F 66% 30.15 in 10.0 mi ENE 11.5 mph - N/A   Clear
2:35 AM 46.4 °F 41.5 °F 35.6 °F 66% 30.15 in 10.0 mi ENE 10.4 mph - N/A   Clear
2:55 AM 46.4 °F 41.9 °F 37.4 °F 71% 30.15 in 10.0 mi ENE 9.2 mph - N/A   Clear
3:15 AM 46.4 °F 41.9 °F 37.4 °F 71% 30.15 in 10.0 mi ENE 9.2 mph - N/A   Clear
3:35 AM 46.4 °F 41.9 °F 37.4 °F 71% 30.15 in 10.0 mi ENE 9.2 mph - N/A   Clear
3:55 AM 46.4 °F 41.9 °F 37.4 °F 71% 30.15 in 10.0 mi ENE 9.2 mph - N/A   Clear
4:15 AM 46.4 °F 42.4 °F 37.4 °F 71% 30.16 in 10.0 mi NE 8.1 mph - N/A   Clear
4:35 AM 46.4 °F 41.9 °F 37.4 °F 71% 30.16 in 10.0 mi NE 9.2 mph - N/A   Clear
4:56 AM 46.4 °F 41.1 °F 37.4 °F 71% 30.16 in 10.0 mi NE 11.5 mph - N/A   Partly Cloudy
5:15 AM 46.4 °F 41.5 °F 37.4 °F 71% 30.16 in 10.0 mi NE 10.4 mph - N/A   Partly Cloudy
5:55 AM 46.4 °F 41.5 °F 37.4 °F 71% 30.16 in 10.0 mi NE 10.4 mph - N/A   Clear
6:15 AM 48.2 °F - 39.2 °F 71% 30.17 in 10.0 mi NE 10.4 mph - N/A   Partly Cloudy
6:35 AM 48.2 °F - 39.2 °F 71% 30.18 in 10.0 mi NE 10.4 mph - N/A   Partly Cloudy
6:55 AM 48.2 °F - 39.2 °F 71% 30.18 in 10.0 mi NE 10.4 mph - N/A   Scattered Clouds
7:35 AM 48.2 °F - 39.2 °F 71% 30.20 in 10.0 mi NE 11.5 mph - N/A   Mostly Cloudy
7:55 AM 48.2 °F - 39.2 °F 71% 30.20 in 10.0 mi NNE 11.5 mph - N/A   Mostly Cloudy
8:15 AM 48.2 °F - 39.2 °F 71% 30.20 in 10.0 mi NE 11.5 mph - N/A   Mostly Cloudy
8:35 AM 48.2 °F - 41.0 °F 76% 30.20 in 10.0 mi NNE 12.7 mph - N/A   Mostly Cloudy
8:55 AM 50.0 °F - 42.8 °F 76% 30.20 in 10.0 mi NNE 11.5 mph - N/A   Mostly Cloudy
9:15 AM 51.8 °F - 42.8 °F 71% 30.20 in 10.0 mi NNE 9.2 mph - N/A   Mostly Cloudy
9:35 AM 51.8 °F - 39.2 °F 62% 30.20 in 10.0 mi NE 9.2 mph - N/A   Scattered Clouds
9:55 AM 51.8 °F - 41.0 °F 67% 30.21 in 10.0 mi ENE 12.7 mph 16.1 mph N/A   Mostly Cloudy
10:15 AM 51.8 °F - 39.2 °F 62% 30.21 in 10.0 mi ENE 8.1 mph - N/A   Scattered Clouds
10:55 AM 51.8 °F - 39.2 °F 62% 30.21 in 10.0 mi NE 11.5 mph - N/A   Clear
11:15 AM 53.6 °F - 39.2 °F 58% 30.20 in 10.0 mi NE 13.8 mph - N/A   Scattered Clouds
11:35 AM 53.6 °F - 41.0 °F 62% 30.20 in 10.0 mi NE 13.8 mph - N/A   Partly Cloudy
11:55 AM 51.8 °F - 41.0 °F 67% 30.20 in 10.0 mi NNE 13.8 mph - N/A   Mostly Cloudy
12:15 PM 53.6 °F - 42.8 °F 67% 30.20 in 10.0 mi ENE 12.7 mph - N/A   Mostly Cloudy
12:35 PM 53.6 °F - 39.2 °F 58% 30.20 in 10.0 mi NE 12.7 mph - N/A   Partly Cloudy
12:55 PM 53.6 °F - 41.0 °F 62% 30.20 in 10.0 mi NE 11.5 mph - N/A   Clear
1:15 PM 53.6 °F - 41.0 °F 62% 30.19 in 10.0 mi NE 13.8 mph - N/A   Clear
1:35 PM 53.6 °F - 42.8 °F 67% 30.19 in 10.0 mi NE 11.5 mph - N/A   Clear